Preview of NWS' New Version of Forecast
This preview is not operational and should not be used for support decisions.

Regional Weather Roundup (RWR)

Issued by Huntsville, AL (HUN)

                            
000
ASUS44 KHUN 170510
RWRHUN
       
WEATHER ROUNDUP FOR THE TENNESSEE VALLEY
NATIONAL WEATHER SERVICE HUNTSVILLE AL
1100 PM CST SUN DEC 16 2018

ALZ001>004-170600-
NORTHWEST ALABAMA
  
CITY           SKY/WX    TMP DP  RH WIND       PRES   REMARKS
COURTLAND HCN    N/A     41 N/A N/A CALM        N/A                   
RUSSELLVILLE     N/A     39 N/A N/A MISG        N/A                   
SHOALS AIRPORT FAIR      47  44  90 NW5       30.24F                  
SHOALS TVA RES   N/A     43 N/A N/A MISG        N/A                   
$$

ALZ005>007-016-170600-
NORTH CENTRAL ALABAMA
  
CITY           SKY/WX    TMP DP  RH WIND       PRES   REMARKS
CULLMAN AG STN   N/A     55 N/A N/A CALM        N/A                   
DECATUR AP     FAIR      41  40  96 CALM      30.23S                  
HUNTSVILLE AP  FAIR      44  41  89 CALM      30.22S                  
MERIDIANVILLE  FOG       36  36  99 CALM      30.22S VSB 1/2          
REDSTONE ARSN  FAIR      45  42  88 CALM      30.21S                  
VINEMONT AP    FAIR      43  42  97 CALM      30.24S                  
$$
 
ALZ008>010-170600-
NORTHEAST ALABAMA
  
CITY           SKY/WX    TMP DP  RH WIND       PRES   REMARKS
ALBERTVILLE    FAIR      45  41  87 CALM      30.20F                  
FORT PAYNE     FOG       36 N/A N/A N3        30.19F VSB 1/4          
SCOTTSBORO AP  FOG       37  37 100 CALM      30.22S VSB<1/4          
SCOTTSBORO HCN   N/A     37 N/A N/A MISG        N/A                   
VALLEY HEAD      N/A     37 N/A N/A MISG        N/A                   
$$

TNZ076-096-097-170600-
SOUTHEASTERN MIDDLE TENNESSEE
  
CITY           SKY/WX    TMP DP  RH WIND       PRES   REMARKS
TULLAHOMA      CLEAR     36  34  93 CALM      30.20S                  
WINCHESTER     CLEAR     36  36 100 CALM      30.21S FOG              
$$
 
...SURROUNDING SITES...
  
CITY           SKY/WX    TMP DP  RH WIND       PRES   REMARKS
ATLANTA        FAIR      49  43  80 NW12      30.16S                  
ANNISTON       FAIR      40  39  97 W8        30.22R WCI  34          
BIRMINGHAM     CLOUDY    48  46  93 NW8       30.25S                  
CHATTANOOGA    FAIR      40  38  93 CALM      30.21S FOG              
CORINTH        FAIR      45  43  93 CALM      30.23F FOG              
DALTON         FAIR      45  43  93 CALM      30.21S                  
GADSDEN        FAIR      36  36 100 CALM      30.22S                  
GOLDEN TRNGL   FOG       43  43 100 SW6       30.26F VSB 3/4          
HALEYVILLE     FAIR      45  45 100 CALM      30.25F FOG              
JACKSON TN     FAIR      40  39  97 CALM      30.24S                  
MEMPHIS        MOCLDY    45  44  97 CALM      30.24S                  
NASHVILLE      MOCLDY    49  34  56 VRB3      30.22S                  
OXFORD MS      FAIR      41  39  93 CALM      30.26F                  
ROME           FAIR      44  41  89 N3        30.19S                  
SAVANNAH       CLEAR     45  43  93 CALM      30.22F                  
SELMER         CLEAR     39  39 100 W5        30.21F                  
TUPELO         FAIR      45  43  93 CALM      30.24F                  
TUSCALOOSA     FAIR      46  43  89 NW3       30.26S                  
$$

...GULF COAST WEATHER...
  
CITY           SKY/WX    TMP DP  RH WIND       PRES   REMARKS
GULFPORT       FAIR      47  45  93 NW3       30.26S                  
PASCAGOULA     FAIR      47  45  93 CALM      30.26S                  
MOBILE         FAIR      48  46  93 CALM      30.26R                  
GULF SHORES    FAIR      43  43 100 W10       30.25R                  
DESTIN         FAIR      51  47  86 NW8       30.22R                  
PANAMA CITY    FAIR      53  48  84 N7        30.19S                  
APPALACHICOLA  FAIR      46  43  89 CALM      30.18F                  
$$